EW5499 Weather Reports


time (UTC)temp
C
wind
direction
speed
KPH
gust
KPH
rain 1hr
cm
rain 24hr
cm
rain mn
cm
humidity
%
barometer
mb
20260507213103 7 269 8.0 11.3 0.00 0.00 0.00 63 1011.1
20260507211545 7 267 11.3 12.9 0.00 0.00 0.00 64 1011.2
20260507210051 7 267 9.7 12.9 0.00 0.00 0.00 64 1011.3
20260507204555 7 265 9.7 11.3 0.00 0.00 0.00 59 1011.4
20260507203042 7 278 9.7 14.5 0.00 0.00 0.00 57 1011.4
20260507201542 8 271 9.7 12.9 0.00 0.00 0.00 54 1011.5
20260507200040 7 267 9.7 12.9 0.00 0.00 0.00 58 1011.5
20260507194536 7 267 9.7 14.5 0.00 0.00 0.00 60 1011.7
20260507193035 7 270 9.7 12.9 0.00 0.00 0.00 62 1011.8
20260507191533 7 264 8.0 11.3 0.00 0.00 0.00 65 1011.8
20260507190038 7 273 8.0 12.9 0.00 0.00 0.00 65 1011.9
20260507184537 7 265 8.0 11.3 0.00 0.00 0.00 66 1011.9
20260507183027 7 260 8.0 12.9 0.00 0.00 0.00 66 1012.0
20260507181524 6 266 8.0 11.3 0.00 0.00 0.00 66 1012.1
20260507180022 6 262 9.7 12.9 0.00 0.00 0.00 65 1012.1
20260507174526 6 274 9.7 11.3 0.00 0.00 0.00 68 1012.3
20260507173022 6 268 9.7 12.9 0.00 0.00 0.00 70 1012.5
20260507171514 6 257 8.0 12.9 0.00 0.00 0.00 71 1012.6
20260507170013 5 263 8.0 12.9 0.00 0.00 0.00 72 1012.9
20260507164514 5 259 6.4 12.9 0.00 0.00 0.00 75 1013.1
20260507163006 4 261 9.7 12.9 0.00 0.00 0.00 75 1013.2
20260507161509 4 263 9.7 12.9 0.00 0.00 0.00 76 1013.3
20260507160005 4 268 9.7 12.9 0.00 0.00 0.00 76 1013.4
20260507154504 4 265 9.7 14.5 0.00 0.00 0.00 76 1013.4
20260507153005 5 267 6.4 11.3 0.00 0.00 0.00 75 1013.2
20260507151503 4 269 6.4 11.3 0.00 0.00 0.00 77 1013.3
20260507150001 4 260 8.0 11.3 0.00 0.00 0.00 77 1013.3
20260507144559 4 261 6.4 11.3 0.00 0.00 0.00 79 1013.4
20260507143059 4 268 8.0 12.9 0.00 0.00 0.00 78 1013.3
20260507141602 4 256 9.7 12.9 0.00 0.00 0.00 79 1013.3
20260507140121 4 256 8.0 11.3 0.00 0.00 0.00 79 1013.4
20260507134555 4 259 8.0 11.3 0.00 0.00 0.00 78 1013.4
20260507133054 5 262 9.7 12.9 0.00 0.00 0.00 77 1013.3
20260507131603 5 259 9.7 14.5 0.00 0.00 0.00 74 1013.2
20260507130053 4 268 6.4 11.3 0.00 0.00 0.00 76 1013.3
20260507124602 4 277 6.4 11.3 0.00 0.00 0.00 79 1013.2
20260507123054 3 257 8.0 12.9 0.00 0.00 0.00 82 1013.1
20260507121546 3 253 8.0 11.3 0.00 0.00 0.00 84 1013.1
20260507120044 2 256 3.2 9.7 0.00 0.00 0.00 80 1013.0
20260507114544 2 286 1.6 4.8 0.00 0.00 0.00 80 1012.8
20260507113039 2 286 0.0 4.8 0.00 0.00 0.00 81 1012.5
20260507111534 1 96 1.6 6.4 0.00 0.00 0.00 82 1012.4
20260507110033 1 95 1.6 6.4 0.00 0.00 0.00 83 1012.2
20260507104631 1 94 1.6 6.4 0.00 0.00 0.00 83 1012.2
20260507103032 1 92 1.6 6.4 0.00 0.00 0.00 84 1012.1
20260507101536 1 92 1.6 4.8 0.00 0.00 0.00 85 1012.1
20260507100033 1 91 3.2 6.4 0.00 0.00 0.00 85 1012.2
20260507094528 1 92 3.2 4.8 0.00 0.00 0.00 84 1012.1
20260507093036 1 92 1.6 4.8 0.00 0.00 0.00 84 1012.1
20260507091516 1 92 3.2 4.8 0.00 0.00 0.00 83 1012.1
20260507090021 1 92 1.6 4.8 0.00 0.00 0.00 83 1012.2
20260507084511 1 92 1.6 6.4 0.00 0.00 0.00 83 1012.2
20260507083022 1 92 1.6 4.8 0.00 0.00 0.00 83 1012.3
20260507081511 2 92 1.6 4.8 0.00 0.00 0.00 83 1012.4
20260507080006 2 92 1.6 4.8 0.00 0.00 0.00 81 1012.4
20260507074510 2 92 1.6 4.8 0.00 0.00 0.00 80 1012.5
20260507073118 2 92 1.6 4.8 0.00 0.00 0.00 79 1012.6
20260507071609 3 92 3.2 4.8 0.00 0.00 0.00 78 1012.7
20260507070056 3 92 1.6 9.7 0.00 0.00 0.00 77 1012.7
20260507064558 3 94 4.8 9.7 0.00 0.00 0.00 76 1012.8
20260507063055 3 90 3.2 9.7 0.00 0.00 0.00 76 1013.0
20260507061552 3 88 3.2 6.4 0.00 0.00 0.00 76 1013.0
20260507060055 3 87 0.0 6.4 0.00 0.00 0.00 75 1013.1
20260507054552 3 86 3.2 6.4 0.00 0.00 0.00 74 1013.1
20260507053048 4 94 1.6 12.9 0.00 0.00 0.00 73 1013.2
20260507051546 4 78 3.2 8.0 0.00 0.00 0.00 72 1013.2
20260507050043 4 94 3.2 6.4 0.00 0.00 0.00 71 1013.2
20260507044542 4 84 1.6 8.0 0.00 0.00 0.00 71 1013.1
20260507043040 4 69 4.8 9.7 0.00 0.00 0.00 72 1013.1
20260507041538 4 80 3.2 8.0 0.00 0.00 0.00 73 1013.0
20260507040035 4 42 3.2 4.8 0.00 0.00 0.00 73 1012.9
20260507034534 5 289 1.6 4.8 0.00 0.00 0.00 73 1012.9
20260507033036 5 289 0.0 3.2 0.00 0.00 0.00 72 1013.0
20260507031533 5 289 0.0 1.6 0.00 0.00 0.00 72 1013.1
20260507030033 5 289 1.6 6.4 0.00 0.00 0.00 71 1013.1
20260507024534 5 290 3.2 6.4 0.00 0.00 0.00 70 1013.1
20260507023031 5 288 4.8 6.4 0.00 0.00 0.00 70 1013.0
20260507021531 6 285 6.4 12.9 0.00 0.00 0.00 72 1013.0
20260507020033 6 262 3.2 9.7 0.00 0.00 0.00 70 1012.8
20260507014529 6 260 3.2 11.3 0.00 0.00 0.00 71 1012.7
20260507013036 6 251 3.2 11.3 0.00 0.00 0.00 70 1012.6
20260507011537 6 261 3.2 6.4 0.00 0.00 0.00 68 1012.4
20260507010029 6 262 3.2 4.8 0.00 0.00 0.00 67 1012.4
20260507004527 6 260 3.2 6.4 0.00 0.00 0.00 67 1012.4
20260507003026 6 286 3.2 6.4 0.00 0.00 0.00 65 1012.4
20260507001529 6 286 1.6 4.8 0.00 0.00 0.00 64 1012.3
20260507000025 6 286 3.2 6.4 0.00 0.00 0.00 63 1012.2
20260506234531 6 298 3.2 6.4 0.00 0.00 0.00 62 1012.3
20260506233026 6 302 1.6 4.8 0.00 0.00 0.00 60 1012.2
20260506231525 6 302 3.2 4.8 0.00 0.00 0.00 58 1012.3
20260506230023 6 302 3.2 6.4 0.00 0.00 0.00 60 1012.4
20260506224528 6 302 3.2 6.4 0.00 0.00 0.00 58 1012.4
20260506223023 6 302 3.2 6.4 0.00 0.00 0.00 58 1012.6
20260506221523 6 302 3.2 6.4 0.00 0.00 0.00 56 1012.6
20260506220009 7 302 4.8 8.0 0.00 0.00 0.00 55 1012.6
20260506214509 7 318 3.2 6.4 0.00 0.00 0.00 57 1012.5